Weather History for Port Aransas, TX

Change the Weather History Date:

Wednesday, November 21, 2012

  Actual Average (KCRP) Record (KCRP)
Temperature  
Mean Temperature 66 °F 64 °F  
Max Temperature 73 °F 74 °F 91 °F (1996)
Min Temperature 60 °F 54 °F 32 °F (1969)
Degree Days  
Heating Degree Days 0 4  
Month to date heating degree days 47  
Since 1 July heating degree days 57  
Cooling Degree Days 2 3  
Month to date cooling degree days 99  
Year to date cooling degree days 3450  
Growing Degree Days 16 (Base 50)    
Moisture  
Dew Point 62 °F    
Average Humidity 83    
Maximum Humidity 100    
Minimum Humidity 65    
Precipitation  
Precipitation 0.00 in 0.05 in 2.07 in (1982)
Month to date precipitation 1.52  
Year to date precipitation 29.48  
Snow  
Snow 0.00 in - - ()
Month to date snowfall  
Since 1 July snowfall  
Since 1 September snowfall  
Snow Depth -    
Sea Level Pressure  
Sea Level Pressure 30.19 in    
Wind  
Wind Speed 4 mph (East)    
Max Wind Speed 12 mph    
Max Gust Speed -    
Visibility 10 miles    
Events      
T = Trace of Precipitation, MM = Missing Value Source: NWS Daily Summary

Daily Weather History Graph

Daily Weather History Graph

Search for Another Location

Airport:

Trip Planner

Search our weather history database for the weather conditions in past years. The results will help you decide how hot, cold, wet, or windy it might be!

Date:

Astronomy

Nov. 21, 2012 Rise Set
Actual Time 6:54 AM CST 5:33 PM CST
Civil Twilight 6:29 AM CST 5:58 PM CST
Nautical Twilight 6:01 AM CST 6:27 PM CST
Astronomical Twilight 5:32 AM CST 6:55 PM CST
Moon 1:22 PM CST (11/21) 12:46 AM CST (11/21)
Length of Visible Light 11h 29m
Length of Day
10h 39m
First Quarter, 62% of the Moon is Illuminated
Nov 21
First Quarter
Nov 28
Full
Dec 6
Last Quarter
Dec 13
New
Dec 19
First Quarter

Hourly Weather History & Observations

Time (CST) Temp. Dew Point Humidity Pressure Visibility Wind Dir Wind Speed Gust Speed Precip Events Conditions
12:15 AM 68.0 °F 64.4 °F 88% 30.18 in 10.0 mi SE 4.6 mph - N/A   Clear
12:35 AM 68.0 °F 62.6 °F 83% 30.18 in 10.0 mi SE 4.6 mph - N/A   Clear
12:55 AM 66.2 °F 62.6 °F 88% 30.18 in 10.0 mi SE 3.5 mph - N/A   Clear
1:15 AM 68.0 °F 62.6 °F 83% 30.18 in 10.0 mi SE 4.6 mph - N/A   Clear
1:35 AM 68.0 °F 62.6 °F 83% 30.18 in 10.0 mi SE 4.6 mph - N/A   Clear
1:55 AM 68.0 °F 62.6 °F 83% 30.17 in 10.0 mi Calm Calm - N/A   Clear
2:15 AM 66.2 °F 62.6 °F 88% 30.17 in 10.0 mi SE 3.5 mph - N/A   Clear
2:35 AM 66.2 °F 60.8 °F 83% 30.17 in 10.0 mi Calm Calm - N/A   Clear
2:55 AM 64.4 °F 62.6 °F 94% 30.17 in 10.0 mi Calm Calm - N/A   Clear
3:15 AM 64.4 °F 62.6 °F 94% 30.18 in 10.0 mi Calm Calm - N/A   Clear
3:35 AM 62.6 °F 60.8 °F 94% 30.18 in 10.0 mi Calm Calm - N/A   Clear
3:55 AM 62.6 °F 60.8 °F 94% 30.18 in 10.0 mi Calm Calm - N/A   Clear
4:15 AM 62.6 °F 62.6 °F 100% 30.18 in 10.0 mi Calm Calm - N/A   Clear
4:35 AM 62.6 °F 60.8 °F 94% 30.17 in 10.0 mi Calm Calm - N/A   Clear
4:55 AM 62.6 °F 60.8 °F 94% 30.17 in 7.0 mi Calm Calm - N/A   Clear
5:15 AM 62.6 °F 60.8 °F 94% 30.18 in 7.0 mi Calm Calm - N/A   Clear
5:35 AM 62.6 °F 60.8 °F 94% 30.19 in 7.0 mi Calm Calm - N/A   Clear
5:55 AM 60.8 °F 59.0 °F 94% 30.19 in 5.0 mi NNE 3.5 mph - N/A   Scattered Clouds
6:15 AM 60.8 °F 59.0 °F 94% 30.19 in 10.0 mi Calm Calm - N/A   Clear
6:35 AM 60.8 °F 60.8 °F 100% 30.20 in 7.0 mi Calm Calm - N/A   Clear
6:55 AM 60.8 °F 60.8 °F 100% 30.20 in 5.0 mi Calm Calm - N/A   Clear
7:15 AM 60.8 °F 59.0 °F 94% 30.21 in 7.0 mi Calm Calm - N/A   Clear
7:35 AM 62.6 °F 60.8 °F 94% 30.22 in 3.0 mi Calm Calm - N/A   Clear
7:55 AM 64.4 °F 62.6 °F 94% 30.22 in 5.0 mi North 3.5 mph - N/A   Clear
8:15 AM 64.4 °F 62.6 °F 94% 30.23 in 10.0 mi North 4.6 mph - N/A   Clear
8:35 AM 68.0 °F 64.4 °F 88% 30.24 in 10.0 mi NNE 6.9 mph - N/A   Clear
8:55 AM 68.0 °F 64.4 °F 88% 30.24 in 10.0 mi NNE 6.9 mph - N/A   Clear
9:15 AM 68.0 °F 62.6 °F 83% 30.24 in 10.0 mi North 3.5 mph - N/A   Clear
9:35 AM 69.8 °F 62.6 °F 78% 30.25 in 10.0 mi NE 5.8 mph - N/A   Clear
9:55 AM 71.6 °F 62.6 °F 73% 30.25 in 10.0 mi ENE 5.8 mph - N/A   Clear
10:15 AM 71.6 °F 62.6 °F 73% 30.25 in 10.0 mi NE 6.9 mph - N/A   Clear
10:35 AM 71.6 °F 60.8 °F 69% 30.25 in 10.0 mi ENE 9.2 mph - N/A   Clear
10:55 AM 73.4 °F 60.8 °F 65% 30.25 in 10.0 mi ENE 6.9 mph - N/A   Clear
11:15 AM 73.4 °F 60.8 °F 65% 30.24 in 10.0 mi ENE 10.4 mph - N/A   Clear
11:35 AM 71.6 °F 60.8 °F 69% 30.24 in 10.0 mi ENE 9.2 mph - N/A   Clear
11:55 AM 73.4 °F 62.6 °F 69% 30.23 in 10.0 mi ENE 8.1 mph - N/A   Clear
12:15 PM 73.4 °F 62.6 °F 69% 30.22 in 10.0 mi ENE 11.5 mph - N/A   Clear
12:35 PM 73.4 °F 60.8 °F 65% 30.21 in 10.0 mi ENE 8.1 mph - N/A   Clear
12:55 PM 73.4 °F 60.8 °F 65% 30.20 in 10.0 mi ENE 10.4 mph - N/A   Clear
1:15 PM 73.4 °F 62.6 °F 69% 30.20 in 10.0 mi ENE 10.4 mph - N/A   Clear
1:35 PM 71.6 °F 62.6 °F 73% 30.19 in 10.0 mi East 10.4 mph - N/A   Clear
2:15 PM 71.6 °F 60.8 °F 69% 30.18 in 10.0 mi ENE 10.4 mph - N/A   Clear
2:35 PM 73.4 °F 60.8 °F 65% 30.17 in 10.0 mi ENE 8.1 mph - N/A   Clear
2:55 PM 71.6 °F 60.8 °F 69% 30.17 in 10.0 mi East 9.2 mph - N/A   Clear
3:15 PM 71.6 °F 60.8 °F 69% 30.17 in 10.0 mi ENE 9.2 mph - N/A   Clear
3:35 PM 71.6 °F 60.8 °F 69% 30.17 in 10.0 mi ENE 10.4 mph - N/A   Clear
3:55 PM 71.6 °F 60.8 °F 69% 30.16 in 10.0 mi East 11.5 mph - N/A   Clear
4:15 PM 71.6 °F 60.8 °F 69% 30.16 in 10.0 mi East 9.2 mph - N/A   Clear
4:35 PM 69.8 °F 60.8 °F 73% 30.16 in 10.0 mi East 8.1 mph - N/A   Clear
4:55 PM 69.8 °F 60.8 °F 73% 30.17 in 10.0 mi East 9.2 mph - N/A   Clear
5:15 PM 69.8 °F 62.6 °F 78% 30.17 in 10.0 mi ENE 8.1 mph - N/A   Clear
5:35 PM 68.0 °F 62.6 °F 83% 30.17 in 10.0 mi ENE 6.9 mph - N/A   Clear
5:55 PM 68.0 °F 62.6 °F 83% 30.17 in 10.0 mi ENE 5.8 mph - N/A   Clear
6:15 PM 68.0 °F 62.6 °F 83% 30.17 in 10.0 mi ENE 4.6 mph - N/A   Clear
6:35 PM 66.2 °F 62.6 °F 88% 30.18 in 10.0 mi East 4.6 mph - N/A   Clear
6:55 PM 66.2 °F 62.6 °F 88% 30.18 in 10.0 mi East 5.8 mph - N/A   Clear
7:15 PM 66.2 °F 62.6 °F 88% 30.19 in 10.0 mi East 3.5 mph - N/A   Clear
7:35 PM 66.2 °F 62.6 °F 88% 30.19 in 10.0 mi East 3.5 mph - N/A   Clear
7:55 PM 66.2 °F 62.6 °F 88% 30.19 in 10.0 mi East 3.5 mph - N/A   Clear
8:15 PM 64.4 °F 62.6 °F 94% 30.19 in 10.0 mi East 3.5 mph - N/A   Clear
8:35 PM 66.2 °F 62.6 °F 88% 30.19 in 10.0 mi East 3.5 mph - N/A   Clear
8:55 PM 64.4 °F 62.6 °F 94% 30.19 in 10.0 mi ENE 3.5 mph - N/A   Clear
9:15 PM 64.4 °F 62.6 °F 94% 30.19 in 10.0 mi East 4.6 mph - N/A   Clear
9:35 PM 64.4 °F 62.6 °F 94% 30.19 in 10.0 mi ESE 4.6 mph - N/A   Clear
9:55 PM 64.4 °F 62.6 °F 94% 30.19 in 10.0 mi ESE 4.6 mph - N/A   Clear
10:15 PM 64.4 °F 62.6 °F 94% 30.19 in 10.0 mi ESE 4.6 mph - N/A   Clear
10:35 PM 66.2 °F 62.6 °F 88% 30.19 in 10.0 mi ESE 4.6 mph - N/A   Clear
10:55 PM 66.2 °F 62.6 °F 88% 30.18 in 10.0 mi SE 3.5 mph - N/A   Clear
11:15 PM 68.0 °F 62.6 °F 83% 30.18 in 10.0 mi SE 3.5 mph - N/A   Clear
11:35 PM 68.0 °F 62.6 °F 83% 30.17 in 10.0 mi SE 5.8 mph - N/A   Clear
11:55 PM 68.0 °F 60.8 °F 78% 30.17 in 10.0 mi SE 4.6 mph - N/A   Clear